| time (UTC) | temp F | wind direction | speed knots | gust knots | rain 1hr in | rain 24hr in | rain mn in | humidity % | barometer mb |
| 20260509054603 | 46 | 110 | 0.0 | 2.6 | 0.00 | 0.01 | 0.00 | 88 | 1005.9 |
| 20260509053059 | 47 | 110 | 0.0 | 3.5 | 0.00 | 0.01 | 0.00 | 87 | 1006.1 |
| 20260509051600 | 47 | 174 | 0.0 | 1.7 | 0.00 | 0.01 | 0.00 | 87 | 1006.2 |
| 20260509050136 | 47 | 174 | 0.9 | 2.6 | 0.00 | 0.01 | 0.00 | 86 | 1006.3 |
| 20260509044603 | 47 | 189 | 0.9 | 4.3 | 0.00 | 0.01 | 0.00 | 86 | 1006.5 |
| 20260509043059 | 48 | 84 | 0.0 | 3.5 | 0.00 | 0.01 | 0.00 | 85 | 1006.5 |
| 20260509041559 | 48 | 84 | 0.9 | 3.5 | 0.00 | 0.01 | 0.00 | 84 | 1006.7 |
| 20260509034559 | 49 | 178 | 1.7 | 5.2 | 0.00 | 0.01 | 0.01 | 82 | 1007.1 |
| 20260509033100 | 49 | 125 | 0.0 | 5.2 | 0.00 | 0.01 | 0.01 | 81 | 1007.1 |
| 20260509031559 | 50 | 101 | 0.9 | 5.2 | 0.00 | 0.01 | 0.01 | 80 | 1007.3 |
| 20260509030100 | 50 | 153 | 1.7 | 6.1 | 0.00 | 0.01 | 0.01 | 78 | 1007.5 |
| 20260509024601 | 50 | 161 | 0.0 | 10.4 | 0.00 | 0.01 | 0.01 | 78 | 1007.7 |
| 20260509023105 | 51 | 158 | 0.0 | 8.7 | 0.00 | 0.01 | 0.01 | 77 | 1007.6 |
| 20260509021600 | 51 | 143 | 1.7 | 10.4 | 0.00 | 0.01 | 0.01 | 75 | 1007.7 |
| 20260509020100 | 51 | 229 | 2.6 | 7.8 | 0.00 | 0.01 | 0.01 | 73 | 1007.6 |
| 20260509014600 | 51 | 91 | 0.0 | 2.6 | 0.00 | 0.01 | 0.01 | 69 | 1007.4 |
| 20260509013103 | 52 | 132 | 0.9 | 2.6 | 0.00 | 0.01 | 0.01 | 66 | 1007.3 |
| 20260509011600 | 53 | 80 | 0.9 | 5.2 | 0.00 | 0.01 | 0.01 | 63 | 1007.2 |
| 20260509004601 | 54 | 117 | 0.9 | 3.5 | 0.00 | 0.01 | 0.01 | 61 | 1006.9 |
| 20260509003106 | 55 | 71 | 0.0 | 2.6 | 0.00 | 0.01 | 0.01 | 59 | 1006.8 |
| 20260509001600 | 56 | 181 | 0.0 | 7.0 | 0.00 | 0.01 | 0.01 | 57 | 1006.7 |
| 20260509000115 | 57 | 75 | 2.6 | 7.0 | 0.00 | 0.01 | 0.01 | 56 | 1006.7 |
| 20260508234601 | 57 | 92 | 0.9 | 6.1 | 0.00 | 0.01 | 0.01 | 56 | 1006.8 |
| 20260508233104 | 58 | 137 | 0.9 | 6.1 | 0.00 | 0.01 | 0.01 | 55 | 1006.7 |
| 20260508231600 | 58 | 85 | 0.9 | 7.8 | 0.00 | 0.01 | 0.01 | 54 | 1006.6 |
| 20260508230108 | 58 | 96 | 0.9 | 5.2 | 0.00 | 0.01 | 0.01 | 53 | 1006.6 |
| 20260508224600 | 57 | 34 | 0.9 | 3.5 | 0.00 | 0.01 | 0.01 | 47 | 1006.7 |
| 20260508223100 | 57 | 336 | 0.9 | 4.3 | 0.00 | 0.01 | 0.01 | 42 | 1006.8 |
| 20260508221606 | 59 | 349 | 1.7 | 3.5 | 0.00 | 0.01 | 0.01 | 38 | 1007.1 |
| 20260508220100 | 58 | 350 | 0.9 | 4.3 | 0.00 | 0.01 | 0.01 | 41 | 1007.1 |
| 20260508214501 | 57 | 356 | 0.0 | 4.3 | 0.00 | 0.01 | 0.01 | 44 | 1007.2 |
| 20260508213003 | 57 | 335 | 0.0 | 3.5 | 0.00 | 0.01 | 0.01 | 38 | 1007.2 |
| 20260508211505 | 58 | 73 | 0.9 | 8.7 | 0.00 | 0.01 | 0.01 | 39 | 1007.2 |
| 20260508210006 | 59 | 349 | 1.7 | 4.3 | 0.00 | 0.01 | 0.01 | 39 | 1007.3 |
| 20260508204502 | 58 | 20 | 0.0 | 3.5 | 0.00 | 0.01 | 0.01 | 37 | 1007.6 |
| 20260508203003 | 58 | 322 | 1.7 | 4.3 | 0.00 | 0.01 | 0.01 | 32 | 1007.9 |
| 20260508201501 | 58 | 297 | 1.7 | 4.3 | 0.00 | 0.01 | 0.01 | 36 | 1008.1 |
| 20260508200003 | 58 | 24 | 1.7 | 5.2 | 0.00 | 0.01 | 0.01 | 35 | 1008.3 |
| 20260508194502 | 58 | 359 | 1.7 | 5.2 | 0.00 | 0.01 | 0.01 | 35 | 1008.5 |
| 20260508193002 | 58 | 312 | 2.6 | 5.2 | 0.00 | 0.01 | 0.01 | 36 | 1008.7 |
| 20260508191501 | 57 | 358 | 1.7 | 7.0 | 0.00 | 0.01 | 0.01 | 36 | 1009.0 |
| 20260508190005 | 57 | 360 | 2.6 | 0.0 | 8.22 | 0.00 | 0.01 | 35 | 1009.1 |
| 20260508184505 | 58 | 322 | 1.7 | 4.3 | 0.00 | 0.01 | 0.01 | 39 | 1009.3 |
| 20260508183002 | 57 | 321 | 1.7 | 5.2 | 0.00 | 0.01 | 0.01 | 43 | 1009.5 |
| 20260508181502 | 57 | 306 | 0.9 | 4.3 | 0.00 | 0.01 | 0.01 | 45 | 1009.9 |
| 20260508180002 | 56 | 328 | 2.6 | 5.2 | 0.00 | 0.01 | 0.01 | 46 | 1010.2 |
| 20260508174502 | 55 | 352 | 1.7 | 6.1 | 0.00 | 0.01 | 0.01 | 50 | 1010.3 |
| 20260508173005 | 54 | 321 | 2.6 | 5.2 | 0.00 | 0.01 | 0.01 | 53 | 1010.6 |
| 20260508171505 | 54 | 302 | 1.7 | 6.1 | 0.00 | 0.01 | 0.01 | 58 | 1010.7 |
| 20260508170003 | 55 | 278 | 1.7 | 5.2 | 0.00 | 0.01 | 0.01 | 52 | 1010.9 |
| 20260508164502 | 54 | 338 | 2.6 | 5.2 | 0.00 | 0.01 | 0.01 | 54 | 1010.9 |
| 20260508163003 | 53 | 322 | 0.9 | 5.2 | 0.00 | 0.01 | 0.01 | 49 | 1010.9 |
| 20260508161503 | 53 | 276 | 0.9 | 3.5 | 0.00 | 0.01 | 0.01 | 55 | 1011.1 |
| 20260508160003 | 52 | 276 | 0.0 | 3.5 | 0.00 | 0.01 | 0.01 | 62 | 1011.3 |
| 20260508154503 | 52 | 276 | 0.0 | 3.5 | 0.00 | 0.01 | 0.01 | 63 | 1011.2 |
| 20260508153003 | 51 | 278 | 0.9 | 4.3 | 0.00 | 0.01 | 0.01 | 66 | 1011.2 |
| 20260508151502 | 51 | 304 | 0.9 | 2.6 | 0.00 | 0.01 | 0.01 | 63 | 1011.2 |
| 20260508150007 | 51 | 304 | 0.0 | 2.6 | 0.00 | 0.01 | 0.01 | 64 | 1011.3 |
| 20260508144503 | 50 | 296 | 0.9 | 3.5 | 0.00 | 0.01 | 0.01 | 64 | 1011.4 |
| 20260508143005 | 49 | 297 | 0.9 | 3.5 | 0.00 | 0.01 | 0.01 | 63 | 1011.5 |
| 20260508141503 | 49 | 269 | 0.0 | 2.6 | 0.00 | 0.01 | 0.01 | 65 | 1011.5 |
| 20260508140003 | 49 | 235 | 0.9 | 3.5 | 0.00 | 0.01 | 0.01 | 70 | 1011.6 |
| 20260508134502 | 49 | 287 | 0.0 | 2.6 | 0.00 | 0.01 | 0.01 | 70 | 1011.6 |
| 20260508133002 | 49 | 269 | 0.9 | 3.5 | 0.00 | 0.01 | 0.01 | 69 | 1011.6 |
| 20260508131503 | 48 | 288 | 0.9 | 3.5 | 0.00 | 0.01 | 0.01 | 72 | 1011.4 |
| 20260508130003 | 48 | 252 | 0.0 | 2.6 | 0.00 | 0.01 | 0.01 | 72 | 1011.4 |
| 20260508124504 | 47 | 192 | 0.9 | 3.5 | 0.00 | 0.01 | 0.01 | 73 | 1011.3 |
| 20260508123003 | 47 | 191 | 0.9 | 2.6 | 0.00 | 0.01 | 0.01 | 78 | 1011.1 |
| 20260508121503 | 45 | 191 | 0.0 | 1.7 | 0.00 | 0.01 | 0.01 | 81 | 1011.1 |
| 20260508120004 | 43 | 191 | 0.0 | 1.7 | 0.00 | 0.01 | 0.01 | 86 | 1011.0 |
| 20260508114503 | 41 | 191 | 0.9 | 3.5 | 0.00 | 0.01 | 0.01 | 91 | 1011.1 |
| 20260508113003 | 39 | 191 | 0.0 | 0.0 | 0.00 | 0.01 | 0.01 | 92 | 1010.9 |
| 20260508111503 | 38 | 191 | 0.0 | 0.0 | 0.00 | 0.01 | 0.01 | 93 | 1010.8 |
| 20260508110004 | 36 | 191 | 0.0 | 0.0 | 0.00 | 0.01 | 0.01 | 92 | 1010.7 |
| 20260508104503 | 35 | 191 | 0.0 | 0.0 | 0.00 | 0.01 | 0.01 | 92 | 1010.8 |
| 20260508103011 | 35 | 191 | 0.0 | 0.0 | 0.00 | 0.01 | 0.01 | 91 | 1010.7 |
| 20260508101506 | 36 | 191 | 0.0 | 0.0 | 0.00 | 0.01 | 0.01 | 91 | 1010.7 |
| 20260508100006 | 36 | 191 | 0.0 | 0.0 | 0.00 | 0.01 | 0.01 | 90 | 1010.8 |
| 20260508094503 | 37 | 191 | 0.0 | 0.0 | 0.00 | 0.01 | 0.01 | 90 | 1010.8 |
| 20260508093005 | 37 | 191 | 0.0 | 0.0 | 0.00 | 0.01 | 0.01 | 89 | 1010.8 |
| 20260508091506 | 38 | 191 | 0.0 | 0.9 | 0.00 | 0.01 | 0.01 | 88 | 1010.8 |
| 20260508090006 | 39 | 191 | 0.0 | 0.0 | 0.00 | 0.01 | 0.01 | 86 | 1010.9 |
| 20260508084504 | 40 | 191 | 0.0 | 0.0 | 0.00 | 0.01 | 0.01 | 85 | 1010.8 |
| 20260508083003 | 41 | 191 | 0.0 | 1.7 | 0.00 | 0.01 | 0.01 | 85 | 1010.7 |
| 20260508081505 | 41 | 162 | 1.7 | 3.5 | 0.00 | 0.01 | 0.01 | 85 | 1010.5 |
| 20260508080005 | 41 | 162 | 0.9 | 3.5 | 0.00 | 0.01 | 0.01 | 86 | 1010.7 |
| 20260508074504 | 41 | 162 | 0.0 | 1.7 | 0.00 | 0.01 | 0.01 | 87 | 1010.5 |
| 20260508073003 | 41 | 162 | 0.0 | 0.0 | 0.00 | 0.01 | 0.01 | 87 | 1010.6 |
| 20260508071506 | 41 | 162 | 0.0 | 0.0 | 0.00 | 0.01 | 0.01 | 86 | 1010.9 |
| 20260508070006 | 41 | 162 | 0.0 | 1.7 | 0.00 | 0.01 | 0.01 | 86 | 1010.8 |
| 20260508064505 | 42 | 162 | 0.0 | 2.6 | 0.00 | 0.01 | 0.01 | 86 | 1011.1 |
| 20260508063006 | 42 | 162 | 0.0 | 0.0 | 0.00 | 0.01 | 0.01 | 85 | 1011.4 |
| 20260508061507 | 42 | 162 | 0.0 | 0.9 | 0.00 | 0.01 | 0.01 | 84 | 1011.4 |
| 20260508060005 | 41 | 162 | 0.0 | 1.7 | 0.01 | 0.01 | 0.01 | 87 | 1011.7 |